Список аэропортов
Фактическая погода:

01 марта, 22:20
Температура: +7°C (+4.3*)
Ветер: юго-западный 4 м/с
Давление: *748 мм
неб. 120 м
разорв. обл.
390 м
Время (МСК)Темп. СВетерВлажностьДавлениеОблачностьОсадки
21:00+8ЮЗ, 5 м/с69%998 гПаоблачно
22:00+8ЮЗ, 5 м/с72%998 гПаоблачно
23:00+8ЮЗ, 6 м/с75%998 гПаоблачно
02 марта
00:00+8ЮЗ, 7 м/с78%998 гПаоблачносл. дождь
01:00+8ЮЗ, 9 м/с72%998 гПас прояснениями
02:00+8З, 12 м/с63%999 гПаоблачно
03:00+7З, 13 м/с63%1000 гПаясно
04:00+6З, 12 м/с58%1001 гПаясно
05:00+6З, 12 м/с63%1001 гПамалооблачно
06:00+5З, 11 м/с65%1002 гПамалооблачно
07:00+5ЮЗ, 11 м/с64%1003 гПас прояснениями
08:00+5З, 11 м/с64%1003 гПаоблачно
09:00+5З, 11 м/с65%1004 гПаоблачно
10:00+5З, 11 м/с67%1005 гПас прояснениями
11:00+5З, 11 м/с65%1006 гПамалооблачно
12:00+7З, 12 м/с62%1007 гПас прояснениями
13:00+8З, 12 м/с58%1008 гПас прояснениями
14:00+9З, 11 м/с56%1008 гПас прояснениями
15:00+9З, 10 м/с55%1010 гПаоблачно
16:00+10З, 10 м/с53%1010 гПаоблачно
17:00+10З, 9 м/с50%1010 гПамалооблачно
18:00+10З, 9 м/с44%1011 гПас прояснениями
19:00+10З, 8 м/с45%1011 гПаоблачно
20:00+10ЮЗ, 6 м/с47%1011 гПаоблачно
21:00+8ЮЗ, 4 м/с53%1011 гПаоблачно
22:00+8Ю, 4 м/с60%1011 гПаоблачно
23:00+8Ю, 5 м/с72%1011 гПаоблачно
03 марта
00:00+9ЮЗ, 6 м/с71%1011 гПаоблачно
01:00+9Ю, 4 м/с75%1010 гПаоблачносл. дождь
02:00+9Ю, 6 м/с76%1009 гПаоблачнодождь
03:00+8Ю, 5 м/с78%1009 гПаоблачно
04:00+8Ю, 5 м/с79%1008 гПаоблачно
05:00+8Ю, 5 м/с78%1007 гПаоблачно
06:00+8Ю, 5 м/с80%1006 гПаоблачно
07:00+8Ю, 5 м/с81%1005 гПаоблачно
08:00+8Ю, 5 м/с82%1005 гПаоблачно
09:00+8Ю, 4 м/с83%1004 гПаоблачносл. дождь
10:00+8ЮВ, 3 м/с85%1003 гПаоблачносл. дождь
11:00+8ЮВ, 4 м/с82%1002 гПаоблачносл. дождь
12:00+9ЮВ, 5 м/с69%1002 гПаоблачнодождь
13:00+9ЮВ, 5 м/с68%1001 гПаоблачнодождь
14:00+9ЮВ, 5 м/с66%1000 гПаоблачнодождь
15:00+9В, 4 м/с67%999 гПаоблачнодождь
16:00+9В, 5 м/с70%998 гПаоблачнодождь
17:00+8В, 5 м/с76%997 гПаоблачнодождь
18:00+8В, 5 м/с82%996 гПаоблачнодождь
19:00+8В, 5 м/с84%996 гПаоблачнодождь
20:00+8В, 6 м/с86%995 гПаоблачнодождь
21:00+8В, 6 м/с87%995 гПаоблачнодождь